Location: Melbourne
(37.8666°S, 145.1333°E)
Time: 07:04:26
(UTC+11:00)

Iridium 21 - Pass Details

Date: 24 November 2017
Orbit: 776 x 779 km, 86.4° (Epoch: 12 December)

Event Time Altitude Azimuth Distance (km) Brightness Sun altitude
Rises 20:57:21 0° 314° (NW) 3,255 8.9 -7.4°
Reaches altitude 10° 21:00:38 10° 292° (WNW) 2,338 8.5 -7.9°
Maximum altitude 21:03:45 16° 256° (WSW) 1,974 8.8 -8.4°
Drops below altitude 10° 21:06:53 10° 219° (SW) 2,358 9.5 -8.9°
Sets 21:10:15 0° 197° (SSW) 3,296 9.7 -9.5°
